Regional Weather Roundup
Issued by NWS

Home | Current Version | Previous Version | Graphics & Text | Print | Product List | Glossary On
Versions: 1 2 3 4 5 6 7 8 9 10 11 12 13 14 15 16 17 18 19 20 21 22 23 24 25 26 27 28 29 30 31 32 33 34 35 36 37 38 39 40 41 42 43 44 45 46 47 48 49 50
000
ASUS43 KMKX 280121
RWRWI

WISCONSIN REGIONAL WEATHER ROUNDUP
NATIONAL WEATHER SERVICE MILWAUKEE/SULLIVAN WI
800 PM CDT THU AUG 27 2015

NOTE: "FAIR" INDICATES FEW OR NO CLOUDS BELOW 12,000 FEET WITH NO
SIGNIFICANT WEATHER AND/OR OBSTRUCTIONS TO VISIBILITY.

WIZ001-002-006>008-014>016-023>028-280200-
NORTHWEST WISCONSIN

CITY           SKY/WX    TMP DP  RH WIND       PRES   REMARKS
SUPERIOR ARPT  MOCLDY    54  51  89 CALM      30.00S
ASHLAND        MOCLDY    61  59  93 CALM      30.02F
HAYWARD        CLOUDY    66  59  78 S3        30.04S
SIREN          CLOUDY    68  59  73 SE5       30.01F
CUMBERLAND     MOCLDY    63  57  82 SE5       30.03F
RICE LAKE      MOCLDY    65  58  79 SE3       30.05F
CHETEK         MOCLDY   N/A N/A N/A SE3       30.04S
LADYSMITH      CLOUDY    66  59  78 S3        30.07S
EAU CLAIRE     MOCLDY    68  58  70 SE7       30.04S
MENOMONIE      MOCLDY    66  60  79 SE5       30.05R
NEW RICHMOND   MOCLDY    67  60  76 S5        30.03S
OSCEOLA        MOCLDY    67  62  82 SE7       30.04S
$$

WIZ003>005-009-010-017-018-280200-
NORTH CENTRAL WISCONSIN

CITY           SKY/WX    TMP DP  RH WIND       PRES   REMARKS
MANITOWISH WTR CLOUDY    62  59  89 CALM      30.06S
ARBOR VITAE    PTCLDY    64  56  75 S3        30.07S
WOODRUFF       PTCLDY    64  56  75 S3        30.07S
RHINELANDER    PTCLDY    63  56  78 CALM      30.09S
EAGLE RIVER    CLOUDY    65  52  64 CALM      30.07S
LAND O LAKES   MOCLDY    63  55  74 CALM      30.08S
PHILLIPS       CLOUDY    65  59  80 S5        30.06S
TOMAHAWK       MOCLDY    62  58  87 CALM      30.09R
MEDFORD        MOCLDY    64  59  82 S3        30.08S
MERRILL        CLOUDY    67  58  74 SW3       30.10R
$$

WIZ029-030-035-036-043>047-280200-
CENTRAL WISCONSIN

CITY           SKY/WX    TMP DP  RH WIND       PRES   REMARKS
WAUSAU         CLOUDY    69  58  67 SW3       30.07S
MOSINEE        CLOUDY    66  59  77 S3        30.10R
MARSHFIELD     CLOUDY    67  57  70 SW3       30.09R
STEVENS POINT  MOCLDY    64  57  78 CALM      30.09F
WAUPACA        PTCLDY    67  57  68 SE3       30.09S
WAUTOMA        MOCLDY    70  57  63 CALM      30.09F
WISC RAPIDS    MOCLDY    68  57  68 CALM      30.10R
CAMP DOUGLAS   CLOUDY    68  66  94 S3        30.08F
$$

WIZ011>013-019>022-031-037>040-048>050-280200-
NORTHEAST WISCONSIN

CITY           SKY/WX    TMP DP  RH WIND       PRES   REMARKS
ANTIGO         PTCLDY    61  56  83 CALM      30.10S
SHAWANO        CLEAR     67  58  73 S3        30.09S
OCONTO         CLEAR     63  63 100 S5        30.09R
STURGEON BAY   CLEAR     57  52  82 S8        30.13S
GREEN BAY      CLEAR     65  57  75 S5        30.10R
MANITOWOC      PTCLDY    58  54  86 MISG      30.13R
APPLETON       MOCLDY    66  54  63 S5        30.09R
CLINTONVILLE   MOCLDY    64  55  72 S5        30.09S
OSHKOSH        MOCLDY    62  57  83 S3        30.10S
$$

WIZ032>034-041-042-053>061-280200-
SOUTHWEST WISCONSIN

CITY           SKY/WX    TMP DP  RH WIND       PRES   REMARKS
LA CROSSE      CLOUDY    71  59  65 SE7       30.04F
SPARTA         CLOUDY    68  57  68 SE5       30.07F
VIROQUA        CLOUDY    66  60  80 SE6       30.08F
BOSCOBEL       MOCLDY    70  59  68 S3        30.08F
PRAIRIE DU CHI CLOUDY    69  57  65 SE5       30.06F
PLATTEVILLE    CLOUDY    65  62  88 S3        30.11F
$$

WIZ056-057-062-063-064-067-068-280200-
SOUTH CENTRAL WISCONSIN

CITY           SKY/WX    TMP DP  RH WIND       PRES   REMARKS
REEDSBURG      MOCLDY    66  59  77 S3        30.10S
BARABOO/DELLS  MOCLDY    67  56  69 SW3       30.11R
LONE ROCK      PTCLDY    65  60  84 E5        30.10S
MINERAL POINT  MOCLDY    68  59  73 CALM      30.12S
MADISON        MOCLDY    69  56  62 SW5       30.11R
MIDDLETON      PTCLDY    67  58  72 CALM      30.12R
WATERTOWN      PTCLDY    65  57  75 S3        30.11S
MONROE         PTCLDY    66  59  77 S3        30.12R
JANESVILLE     CLEAR     68  55  64 S5        30.11F
$$

WIZ051-052-058>065-066-070>072-280200-
SOUTHEAST WISCONSIN

CITY           SKY/WX    TMP DP  RH WIND       PRES   REMARKS
MILWAUKEE      MOCLDY    64  54  69 S7        30.13R
WAUKESHA       CLEAR     64  54  68 SE8       30.14R
MILWAUKEE/TIMM CLEAR     64  48  55 S5        30.14R
RACINE         MOCLDY    63  55  75 S3        30.15R
BURLINGTON     MOCLDY    60  53  75 SE3       30.13S
KENOSHA        MOCLDY    63  55  75 SE5       30.14R
FOND DU LAC    MOCLDY    64  58  80 S5        30.10S
SHEBOYGAN      PTCLDY    61  54  77 S8        30.13R
WEST BEND      MOCLDY    63  54  72 CALM      30.13R
JUNEAU         MOCLDY    65  56  72 S7        30.12S
$$

LSZ147-162-280200-
LAKE SUPERIOR

STATION/POSITION TIME  TEMP    WIND        PRES    WAVE
                       AIR SEA DIR/SP/G            HT/PER
                 (UTC) (F)     (DEG/KT/KT) (MB)    (FT/S)
W MID LAKE BUOY  0050   58 57  110/  6/  6 1016.6S   0
DEVILS ISLAND    0100   63     140/  9/ 10 1016.2F
PORT WING        0000   59     290/  1/  3 1016.3F
SAXON HARBOR     0040   64        CALM     1015.9F
$$

LMZ867-665-643>646-280200-
LAKE MICHIGAN

STATION/POSITION TIME  TEMP    WIND        PRES    WAVE
                       AIR SEA DIR/SP/G            HT/PER
                 (UTC) (F)     (DEG/KT/KT) (MB)    (FT/S)
CHAMBERS ISLAND  0000   65     140/  5/  9 1018.6F
S GREEN BAY BUOY 0100   66     170/ 10/ 12 1020.3R
N MID LAKE BUOY  0050   63 64  210/ 16/ 17 1019.1F   2/ 4
NORTHPORT PIER   0000   62     170/  4/  8 1019.0S
SISTER BAY       0019   64     160/ 12/ 14   N/A
ALGOMA LAKESHORE 0014          210/ 11/ 12   N/A
KEWAUNEE LAKESHO 0000   53     170/  9/ 10 1018.4F
SHEBOYGAN LAKESH 0100   61     200/ 13/ 15 1020.8R
PORT WASHINGTON  0000   56     210/  5/  8 1020.3F
ATWATER BUOY     0100   54 47  160/  8/  8 1021.6R
MILWAUKEE LAKESH 0100   59     180/  3/  5   N/A
S MID LAKE BUOY  0050   66 69  160/  6/  6 1020.3F   0
KENOSHA   LAKESH 0100   64     180/  8/  9 1020.3R
$$

TC  - TEMPERATURE IN CELSIUS
VSB - VISIBILITY IN STATUTE MILES
WCI - WIND CHILL INDEX
HX  - HEAT INDEX



USA.gov is the U.S. government's official web portal to all federal, state and local government web resources and services.